Home   Weather   Bad Vilbel   Past weeks

Flag for Germany Past Weather in Bad Vilbel, Hesse, Germany — Yesterday and Last 2 Weeks

Now
19 °F

Clear.


Feels Like: 19 °F
Forecast: 17 / 27 °F
Wind: 2 mph from Southwest

Location: Frankfurt-M-Flughafen Airport

Current Time: Jan 22, 2017 at 9:51:30 pm

Latest Report: Jan 22, 2017 at 9:20 pm


Visibility: 4 mi

Pressure: 30.27 "Hg

Humidity: 86%

Dew Point: 16 °F

Location of Bad VilbelLocation

Past Weather in Bad Vilbel — Graph

°F

Bad Vilbel Temperature Yesterday

Maximum temperature yesterday: 37 °F (at 1:20 pm)
Minimum temperature yesterday: 21 °F (at 7:50 am)
Average temperature yesterday: 29 °F

High & Low Weather Summary for the Past Weeks

 TemperatureHumidityPressure
High43 °F (Jan 12, 12:50 pm)100% (Jan 7, 10:20 pm)30.66 "Hg (Jan 7, 10:20 pm)
Low18 °F (Jan 22, 4:50 am)28% (Jan 20, 3:20 pm)29.15 "Hg (Jan 13, 12:50 am)
Average31 °F78%30.20 "Hg
* Reported Jan 7 8:20 pm — Jan 22 8:50 pm, Bad Vilbel, Weather by CustomWeather, © 2017

Note: Actual official high and low records may vary slightly from our data, if they occured in-between our weather recording intervals... More about our weather records

Advertising

Bad Vilbel Weather History for the Previous 24 Hours

Scroll right to see more
 ConditionsComfort  
Time TempWeatherWind HumidityBarometerVisibility
8:50 pm
Sun, Jan 22
21 °FClear.1 mph86%30.27 "Hg4 mi
8:20 pm23 °FClear.2 mph80%30.27 "Hg6 mi
7:50 pm23 °FClear.1 mph80%30.27 "Hg6 mi
7:20 pm25 °FClear.2 mph74%30.27 "Hg10 mi
6:50 pm25 °FClear.2 mph74%30.27 "Hg10 mi
6:20 pm27 °FClear.5 mph69%30.27 "Hg10 mi
5:50 pm27 °FClear.6 mph69%30.27 "Hg10 mi
5:20 pm28 °FClear.5 mph69%30.24 "Hg6 mi
4:50 pm32 °FSunny.5 mph60%30.27 "Hg10 mi
4:20 pm32 °FSunny.6 mph60%30.27 "Hg10 mi
3:50 pm34 °FSunny.6 mph56%30.27 "Hg10 mi
3:20 pm34 °FSunny.6 mph56%30.27 "Hg10 mi
2:50 pm34 °FPassing clouds.7 mph51%30.27 "HgN/A
2:20 pm34 °FSunny.7 mph51%30.27 "Hg10 mi
1:50 pm32 °FPassing clouds.7 mph55%30.27 "HgN/A
1:20 pm32 °FPassing clouds.8 mph55%30.30 "HgN/A
12:50 pm32 °FPassing clouds.8 mph55%30.30 "HgN/A
12:20 pm30 °FSunny.8 mph59%30.30 "Hg10 mi
11:50 am30 °FPassing clouds.9 mph59%30.33 "HgN/A
11:20 am28 °FSunny.9 mph69%30.33 "Hg10 mi
10:50 am27 °FPassing clouds.8 mph69%30.33 "HgN/A
10:20 am25 °FSunny.9 mph74%30.33 "Hg10 mi
9:50 am23 °FSunny.6 mph80%30.33 "Hg10 mi
9:20 am23 °FSunny.5 mph74%30.33 "Hg10 mi
8:50 am19 °FSunny.6 mph79%30.33 "Hg10 mi
8:20 am18 °FSunny.6 mph86%30.33 "Hg10 mi
7:50 am18 °FClear.6 mph86%30.33 "Hg10 mi
7:20 am18 °FClear.8 mph79%30.33 "Hg10 mi
6:50 am18 °FClear.7 mph86%30.33 "Hg10 mi
6:20 am19 °FClear.7 mph79%30.33 "Hg10 mi
5:50 am19 °FClear.7 mph79%30.33 "Hg10 mi
5:20 am19 °FClear.7 mph79%30.33 "Hg10 mi
4:50 am18 °FClear.5 mph86%30.33 "Hg10 mi
4:20 am19 °FClear.5 mph79%30.33 "Hg10 mi
3:50 am19 °FClear.5 mph79%30.36 "Hg10 mi
3:20 am19 °FClear.8 mph86%30.36 "Hg10 mi
2:50 am19 °FClear.9 mph86%30.36 "Hg10 mi
2:20 am19 °FClear.8 mph79%30.36 "Hg10 mi
1:50 am19 °FClear.8 mph79%30.36 "Hg10 mi
1:20 am21 °FClear.7 mph74%30.36 "Hg10 mi
12:50 am21 °FClear.7 mph80%30.36 "Hg10 mi
12:20 am21 °FClear.8 mph74%30.36 "Hg10 mi
11:50 pm
Sat, Jan 21
23 °FClear.7 mph68%30.36 "Hg10 mi
11:20 pm25 °FClear.5 mph69%30.36 "Hg10 mi
10:50 pm27 °FClear.9 mph64%30.36 "Hg10 mi
10:20 pm25 °FClear.9 mph69%30.36 "Hg10 mi
9:50 pm27 °FClear.8 mph64%30.39 "Hg10 mi
9:20 pm27 °FClear.6 mph64%30.39 "Hg10 mi
Weather by CustomWeather, © 2017

See weather overviewHow to use our weather pages